TimeCDT,TemperatureF,Dew PointF,Humidity,Sea Level PressureIn,VisibilityMPH,Wind Direction,Wind SpeedMPH,Gust SpeedMPH,PrecipitationIn,Events,Conditions,WindDirDegrees,DateUTC
12:52 AM,64.9,59.0,81,29.95,10.0,Calm,Calm,-,N/A,,Clear,0,2013-08-28 05:52:00
1:52 AM,64.0,59.0,84,29.95,10.0,Calm,Calm,-,N/A,,Clear,0,2013-08-28 06:52:00
2:52 AM,63.0,57.9,84,29.95,10.0,Calm,Calm,-,N/A,,Clear,0,2013-08-28 07:52:00
3:52 AM,63.0,57.9,84,29.95,10.0,Calm,Calm,-,N/A,,Clear,0,2013-08-28 08:52:00
4:52 AM,61.0,57.9,90,29.95,10.0,Calm,Calm,-,N/A,,Clear,0,2013-08-28 09:52:00
5:52 AM,59.0,55.9,90,29.95,10.0,North,3.5,-,N/A,,Clear,10,2013-08-28 10:52:00
6:52 AM,60.1,57.0,90,29.96,9.0,Calm,Calm,-,N/A,,Clear,0,2013-08-28 11:52:00
7:52 AM,62.1,60.1,93,29.97,5.0,Calm,Calm,-,N/A,,Clear,0,2013-08-28 12:52:00
8:52 AM,66.9,62.1,84,29.97,10.0,Calm,Calm,-,N/A,,Clear,0,2013-08-28 13:52:00
9:52 AM,71.1,63.0,75,29.98,10.0,Calm,Calm,-,N/A,,Clear,0,2013-08-28 14:52:00
10:52 AM,73.9,64.9,73,29.98,10.0,SSE,4.6,-,N/A,,Clear,150,2013-08-28 15:52:00
11:52 AM,78.1,64.9,64,29.98,10.0,SE,4.6,-,N/A,,Clear,140,2013-08-28 16:52:00
12:52 PM,81.0,66.0,60,29.96,10.0,SSE,6.9,-,N/A,,Clear,160,2013-08-28 17:52:00
1:52 PM,88.0,64.0,45,29.94,10.0,SSE,11.5,-,N/A,,Clear,150,2013-08-28 18:52:00
2:52 PM,90.0,63.0,40,29.92,10.0,SE,11.5,-,N/A,,Clear,130,2013-08-28 19:52:00
3:52 PM,91.0,63.0,39,29.90,10.0,SE,8.1,-,N/A,,Clear,140,2013-08-28 20:52:00
4:52 PM,91.0,61.0,36,29.88,10.0,South,11.5,-,N/A,,Clear,170,2013-08-28 21:52:00
5:52 PM,89.1,63.0,42,29.87,10.0,SSE,12.7,-,N/A,,Clear,150,2013-08-28 22:52:00
6:52 PM,88.0,64.0,45,29.87,10.0,South,10.4,-,N/A,,Clear,170,2013-08-28 23:52:00
7:52 PM,84.9,64.0,49,29.86,10.0,SSE,8.1,-,N/A,,Clear,150,2013-08-29 00:52:00
8:52 PM,80.1,62.1,54,29.86,10.0,East,5.8,-,N/A,,Clear,100,2013-08-29 01:52:00
9:52 PM,77.0,63.0,62,29.85,10.0,East,4.6,-,N/A,,Clear,100,2013-08-29 02:52:00
10:52 PM,79.0,64.0,60,29.86,10.0,ESE,4.6,-,N/A,,Clear,110,2013-08-29 03:52:00
11:52 PM,77.0,64.9,66,29.84,10.0,North,4.6,-,0.00,Rain,Light Rain,360,2013-08-29 04:52:00